Dewpoint
8 8 9 10 9 9 10 10 8 6 8 10 0 -1 1 12 14 13 14 16 13 9 10 10 8 4 -0 1 4 7 7 9 9 10 11 11 12 12 11 12 13 14 15 15
8 9 8 7 7 6 5 3 4 5 5 1 8 7 8 9 9 10 12 9 9 10 10 9 7 -1 1 1 1 -1 4 5 8 10 11 11 12 11 11 11 12 13 14 15
3 5 5 -1 -2 0 -4 -7 -8 -5 -6 -7 -12 -8 -6 -3 1 6 7 7 7 7 7 6 -2 -2 -2 -1 -1 -1 -0 4 6 8 10 10 10 10 10 11 12 13 14 15
5 2 -11 -7 1 2 -5 -10 -10 -7 -6 -10 -8 -8 -6 -4 -2 2 0 4 6 5 5 3 2 1 -2 -1 -2 -2 -1 1 4 5 7 8 9 10 10 11 12 13 14 15
1 -3 -5 -5 -0 -2 -6 -6 -7 -10 -9 -5 -5 -7 -4 1 -2 1 5 7 6 5 4 4 3 2 1 1 0 -1 -1 -1 1 3 5 6 7 8 10 12 12 13 14 16
-6 -6 -10 -10 -3 -2 -5 -13 -5 -1 -8 -8 -1 -11 -6 -3 -2 2 6 5 5 6 5 6 5 2 2 4 -1 1 0 1 3 4 5 6 7 9 11 13 13 14 15 15
-3 -6 -4 -5 -4 -2 -13 -12 -0 -2 -5 -4 -4 -5 -3 2 4 4 3 3 6 7 3 4 4 3 4 5 1 1 2 1 4 4 5 7 9 10 11 12 14 13 15 15
-9 -13 -12 -3 -2 -7 -8 -6 -1 0 0 -0 -1 2 1 -0 0 1 2 3 4 5 3 4 5 4 5 2 2 1 2 2 3 4 6 9 8 9 12 11 11 11 12 13
-10 -10 -11 -10 -9 -5 -3 -2 0 -0 -1 -0 -1 -2 -3 -3 -4 -3 -1 -0 1 2 3 3 3 3 3 2 2 3 1 3 3 4 6 7 10 11 10 10 9 9 10 12
-11 -11 -11 -10 -3 -1 4 -5 -2 -3 -3 -4 -1 -3 -4 -5 -5 -4 -3 -4 -3 -2 -1 -0 1 4 2 3 3 3 3 3 4 4 7 8 8 11 9 9 8 8 11 14
-15 -14 -11 -12 -4 -3 -2 -2 -3 -4 -5 -5 -5 -5 -5 -4 -4 -3 -4 -4 -3 -3 -3 -2 1 -0 1 3 3 4 4 4 4 5 6 7 9 9 10 9 11 11 14 17
-15 -17 -15 -12 -10 -7 -5 -4 -3 -3 -3 -3 -4 -4 -4 -3 -2 -2 -3 -2 -2 -2 -0 -1 -0 1 2 3 4 4 4 4 4 5 5 9 8 9 13 13 14 15 17 17
-15 -17 -15 -7 -6 -7 -6 -5 -4 -4 -3 -3 -2 -2 -2 -3 -3 3 2 1 0 -0 -0 0 0 1 2 3 4 4 4 4 4 6 6 6 7 8 7 7 12 14 15 17
-9 -9 -8 -8 -9 -11 -12 -8 -1 -5 -5 -5 -6 -5 -4 -4 -2 -3 -3 -3 -2 -1 -1 -0 0 0 1 1 2 3 3 10 5 4 5 6 9 10 5 4 4 6 10 15
-8 -7 -6 -5 -4 -5 -5 -5 -6 -7 -7 -6 -5 -5 -4 -5 -5 -5 -4 -4 -3 -3 -3 -2 -2 -2 -1 0 2 2 3 3 3 4 6 11 10 5 5 4 6 4 5 9
-9 -8 -6 -7 -7 -7 -7 -6 -5 -5 -4 -3 -3 -3 -3 -3 -3 -3 -2 -2 -3 -4 -4 -4 -3 -1 -1 0 1 2 3 10 10 9 8 11 6 4 4 5 5 4 4 5
-7 -8 -8 -7 -6 -6 -7 -5 -4 -4 -3 -2 -2 -1 -0 1 1 1 1 0 1 1 1 1 1 2 1 2 2 3 4 4 11 7 9 7 6 4 5 5 3 4 4 7
-4 -4 -4 -4 -3 -3 -3 -3 -2 -2 -2 -3 -3 -2 -2 -2 -2 -1 0 0 0 1 1 1 2 2 3 3 3 5 5 5 6 6 9 7 5 6 4 3 4 4 4 5
2 0 1 1 1 1 1 1 0 0 1 0 -1 -1 -1 -1 -1 -1 -1 -1 -1 -1 -1 0 6 6 7 4 6 6 7 7 8 8 8 8 4 5 3 4 4 4 4 4
0 0 -0 0 1 1 2 3 3 3 2 0 1 1 0 -1 -2 -2 -1 -1 -1 -1 0 1 2 2 3 5 9 5 8 5 5 6 9 6 4 2 3 5 4 3 3 4
3 3 3 3 3 2 2 1 3 2 1 0 1 1 -0 -0 0 0 0 -1 -2 -0 1 4 4 8 8 4 3 2 4 6 6 7 7 1 1 2 2 2 3 3 3 3
5 5 4 4 4 4 3 2 4 5 4 3 3 2 2 1 -0 -1 -0 -0 -1 7 3 2 2 5 4 8 5 5 6 6 8 7 0 -1 -1 0 2 3 1 2 3 2
6 5 5 6 5 5 5 3 3 3 4 3 3 3 2 1 1 -0 -3 -3 -1 4 3 2 5 7 9 8 11 10 11 7 1 1 -2 -3 -1 1 2 -1 2 2 1 1
7 7 6 7 8 6 3 2 2 3 4 5 5 4 4 2 1 1 -0 5 8 8 9 8 7 10 11 11 9 7 9 7 5 1 -3 5 -3 -4 -3 -1 -1 1 1 3
10 9 9 7 6 5 5 6 6 4 2 1 1 2 2 2 4 2 1 1 7 6 7 8 9 8 8 5 5 4 3 3 -2 -3 -1 0 2 -5 -4 -5 -4 -0 2 -1
9 9 9 10 9 9 9 9 6 6 6 6 6 5 5 6 5 6 6 8 6 7 5 5 4 3 2 -2 -2 1 2 2 2 -1 -0 -4 -5 -4 -7 -7 -7 -4 -2 -2
10 13 10 11 8 8 10 10 8 5 7 7 6 7 8 8 7 8 10 8 7 5 3 5 7 6 4 2 -1 -3 -4 -4 2 -2 -3 -5 -7 -8 -8 -9 -9 -8 -4 -4
Lifted_Index
13 14 14 15 15 15 15 13 12 12 12 12 11 10 9 8 7 7 7 6 6 6 6 7 7 8 9 9 9 9 9 8 8 9 9 9 9 9 9 9 9 9 9 9
11 13 14 14 15 15 14 14 13 12 11 10 10 9 8 7 7 7 7 7 7 7 7 7 8 9 9 9 9 9 9 8 8 9 9 9 9 9 9 9 9 9 9 9
10 12 13 13 14 15 14 13 12 11 10 9 8 7 7 7 7 7 7 7 7 7 8 8 9 9 9 9 9 9 9 9 9 9 9 9 9 9 9 9 9 9 9 8
10 11 11 12 14 14 13 11 10 9 8 7 7 7 7 7 8 8 8 8 8 8 8 9 9 10 10 10 9 9 9 9 9 9 9 9 9 9 9 9 9 9 9 8
10 9 10 12 13 12 11 10 9 8 7 7 7 6 7 8 8 9 9 9 9 9 9 10 10 10 10 10 9 9 9 9 9 9 8 8 8 8 9 9 9 9 9 9
10 9 9 11 11 10 9 8 8 7 7 6 6 6 7 8 9 9 10 10 10 10 10 10 10 10 10 9 9 9 9 9 9 9 8 8 8 8 9 9 9 9 9 9
10 9 8 9 9 8 7 7 7 8 7 7 7 7 8 9 10 10 10 11 11 11 11 11 11 10 10 9 9 10 10 9 9 8 8 8 9 9 9 9 10 10 9 9
9 8 8 8 8 8 8 8 8 8 8 8 8 9 9 10 10 10 10 11 11 11 11 11 11 11 10 9 10 10 10 9 9 8 8 9 9 9 9 10 10 10 9 9
9 8 7 7 8 9 9 9 9 9 9 9 9 9 9 9 10 10 10 10 11 11 11 11 11 11 10 10 10 10 10 9 8 8 9 9 9 9 10 10 10 10 10 9
9 8 8 8 9 10 10 10 10 10 11 10 10 10 9 9 10 10 10 10 10 10 10 10 11 11 11 10 10 10 9 9 8 9 9 9 9 10 10 10 11 11 10 10
9 9 9 9 10 11 11 11 12 12 12 11 11 11 10 10 10 10 10 10 10 10 10 10 10 10 10 10 10 10 9 9 8 9 9 9 10 10 10 11 12 12 11 11
9 10 10 10 11 12 12 12 12 12 12 12 11 11 11 11 11 11 11 11 10 10 10 10 10 10 10 10 10 10 9 9 9 9 9 10 10 10 10 11 12 12 12 12
11 11 11 11 12 12 12 12 12 12 12 12 12 12 12 12 11 11 11 11 11 11 11 11 10 10 10 10 10 10 9 9 9 9 10 10 10 10 10 11 11 11 11 11
13 13 12 12 12 12 13 13 13 13 12 12 12 12 12 12 12 11 11 11 11 11 11 11 10 10 10 10 10 10 10 10 10 10 10 10 11 11 11 11 11 10 10 10
13 13 12 12 12 12 13 13 12 12 12 12 12 12 12 12 12 11 11 12 12 11 11 11 11 10 11 11 11 11 10 10 10 10 11 11 11 11 12 12 11 11 11 10
12 12 12 12 12 12 12 12 12 12 12 12 12 12 12 12 12 12 12 12 12 11 11 11 11 11 11 11 11 11 11 11 11 11 11 11 11 11 12 12 12 12 12 11
12 11 12 12 12 12 12 12 13 13 12 13 13 13 13 13 13 12 12 12 12 12 12 12 12 12 12 12 12 11 11 11 11 11 11 11 11 12 12 12 13 12 12 12
13 13 13 13 13 12 12 13 13 13 13 13 13 13 13 13 13 12 13 13 13 12 12 12 12 12 12 12 12 12 12 11 11 11 11 11 12 12 12 13 13 13 12 12
14 14 14 13 13 13 13 13 13 14 14 14 14 13 13 13 13 13 13 13 12 12 12 13 13 13 12 12 12 12 12 12 11 11 12 12 12 12 13 13 13 13 13 13
13 13 13 13 13 13 13 14 14 14 14 14 14 14 13 13 13 13 13 12 12 12 13 13 13 13 13 12 12 12 12 12 12 11 12 12 12 12 13 13 13 13 13 13
12 13 13 13 13 13 13 14 14 14 14 14 14 14 13 13 13 13 12 12 12 13 13 13 13 13 13 13 12 12 12 12 11 11 11 12 12 12 13 13 13 14 13 13
12 12 12 13 13 13 13 14 14 14 14 14 14 14 14 14 14 13 13 12 12 13 13 13 13 13 12 12 12 12 12 11 11 11 12 12 12 12 13 13 13 14 14 14
12 12 12 13 13 13 13 13 13 14 14 14 14 14 14 14 14 13 13 13 13 13 13 13 13 12 12 12 12 12 11 11 11 12 12 12 13 13 13 13 13 14 14 14
12 12 12 12 13 13 13 13 13 13 13 13 13 14 14 14 14 14 14 14 14 13 13 12 12 12 11 11 12 12 12 12 12 13 13 13 13 13 13 13 14 14 14 14
12 12 12 12 12 12 13 13 13 13 13 13 13 13 14 13 13 13 14 14 14 13 13 13 12 12 12 12 12 13 13 13 13 13 13 13 13 14 14 14 14 14 14 14
12 12 12 12 12 12 12 12 12 12 13 13 13 13 13 13 13 13 13 13 14 14 13 13 13 13 13 13 13 13 13 13 14 14 14 14 14 14 14 14 14 14 14 14
12 12 12 12 12 12 12 12 12 12 12 13 13 13 13 12 12 12 13 13 13 14 13 13 13 13 13 13 13 14 14 14 14 14 14 14 14 14 14 14 14 14 14 14